THOR ABLESTAR DEB, 4014

Orbit data source: Space-Track

THOR ABLESTAR DEB, 4014 is space debris in LEO originally from a launch on Thu, 29 Jun 1961 UTC launched from the Air Force Eastern Test Range (AFETR). Debris objects in space refer to the collection of defunct objects orbiting the Earth. Examples of debris include non-operational satellites, rocket bodies, and fragments generated from explosions, collisions, or faulty payload assembly.

Loading next visibility...
Identifier
4014, 1961-015JM
Orbit
LEO
Country
Flag of USUS
Related business
Manufacturer
Unknown
Mission
Spacecraft
Bus & Motor
Unknown
Mass
Unknown
Launch date (UTC)
1961-06-29 (64 years ago)
Launch vehicle
Unknown
Launch site
Air Force Eastern Test Range (AFETR)
Object type
Payload
Rocket body
Debris
Shape & HBR
Unknown
Radar Cross Section
Small (<0.1 m²)

Expand to show TLE details & history
Last TLE update: 2 days ago

TLE from 2 days ago
0 THOR ABLESTAR DEB
1 04014U 61015JM  25242.17805963  .00001054  00000-0  30279-2 0  9999
2 04014  67.6268  28.3252 0820547 176.1801   3.9757 12.29993924878574
Epoch: 2025-08-30T04:16Z
TLE epoch observation values (Epoch: 2025-08-30T04:16:24.352Z)
Latitude
-0.91633°
Longitude
165.98285°
Altitude
902.72 km
Speed
7.698 km/s
True Right ascension
13h 54m 48s
True Declination
0° 54' 39"
Sunlit
Object was in daylight at epoch
Visualization orbit readout
Latitude
Unknown
Longitude
Unknown
Altitude
Unknown
Speed
Unknown
Apparent Right ascension
Unknown
Apparent Declination
Unknown
Sunlit
N/A
Visualization observer readout
Local Sidereal Time
12:34:12
Azimuth
Unknown
Elevation
Unknown
Doppler factor
Unknown
Orbital elements
Apogee altitude
2,198.08 km
Perigee altitude
897.372 km
Semi-major axis
7,925.863 km
Eccentricity
0.08205
Inclination
67.6268°
RAAN
28.3252°
Arg. of periapsis
176.1801°
True anomaly
4.70153°
Mean anomaly
3.9757°
Eccentric anomaly
4.33072°
Mean motion
3.07591 °/min
Orbital period
117.04 mins
BSTAR
0.0030279
Loading maneuver chart data...
Computing Atmospheric mass density...

Documentation

Showing up to 5 results
|